GW6383 Weather Reports


time (UTC)temp
C
wind
direction
speed
KPH
gust
KPH
rain 1hr
cm
rain 24hr
cm
rain mn
cm
humidity
%
barometer
mb
20260505070329 17 137 0.0 0.0 0.00 0.00 0.00 71 1005.0
20260505065824 18 85 1.6 3.2 0.00 0.00 0.00 68 1005.9
20260505065321 18 27 3.2 4.8 0.00 0.00 0.00 68 1005.2
20260505064818 19 27 4.8 6.4 0.00 0.00 0.00 70 1004.9
20260505064315 20 189 0.0 0.0 0.00 0.00 0.00 77 1005.0
20260505063814 20 148 0.0 0.0 0.00 0.00 0.00 77 1004.8
20260505063309 20 175 1.6 1.6 0.00 0.00 0.00 76 1004.8
20260505062806 20 169 0.0 0.0 0.00 0.00 0.00 76 1004.8
20260505062304 19 249 1.6 1.6 0.00 0.00 0.00 77 1004.3
20260505061800 19 169 0.0 1.6 0.00 0.00 0.00 77 1004.4
20260505061258 19 198 0.0 1.6 0.00 0.00 0.00 77 1004.3
20260505060755 19 190 0.0 0.0 0.00 0.00 0.00 76 1004.3
20260505060252 19 182 1.6 1.6 0.00 0.00 0.00 76 1004.3
20260505055747 19 213 1.6 1.6 0.00 0.00 0.00 77 1004.2
20260505055244 19 165 0.0 1.6 0.00 0.00 0.00 76 1003.8
20260505054742 19 38 3.2 3.2 0.00 0.00 0.00 74 1003.9
20260505054239 19 170 0.0 1.6 0.00 0.00 0.00 75 1004.0
20260505053737 19 212 0.0 0.0 0.00 0.00 0.00 75 1003.9
20260505053233 19 215 1.6 3.2 0.00 0.00 0.00 74 1003.8
20260505052731 19 188 0.0 0.0 0.00 0.00 0.00 74 1003.8
20260505052228 20 185 0.0 0.0 0.00 0.00 0.00 73 1003.7
20260505051725 20 188 0.0 0.0 0.00 0.00 0.00 73 1003.5
20260505051223 20 189 0.0 0.0 0.00 0.00 0.00 73 1003.7
20260505050720 20 195 0.0 0.0 0.00 0.00 0.00 72 1003.4
20260505050219 20 194 0.0 0.0 0.00 0.00 0.00 71 1003.5
20260505041648 21 192 1.6 3.2 0.00 0.00 0.00 70 1003.2
20260505041146 21 183 1.6 1.6 0.00 0.00 0.00 69 1003.5
20260505040643 21 182 0.0 0.0 0.00 0.00 0.00 69 1003.3
20260505040140 21 180 0.0 0.0 0.00 0.00 0.00 68 1003.2
20260505035636 22 174 1.6 1.6 0.00 0.00 0.00 67 1003.2
20260505035132 22 183 0.0 0.0 0.00 0.00 0.00 67 1003.3
20260505034629 22 186 0.0 1.6 0.00 0.00 0.00 66 1003.7
20260505034126 22 182 3.2 3.2 0.00 0.00 0.00 66 1003.5
20260505033622 22 189 1.6 3.2 0.00 0.00 0.00 65 1003.4
20260505033121 22 115 1.6 4.8 0.00 0.00 0.00 64 1003.3
20260505032619 22 143 3.2 4.8 0.00 0.00 0.00 64 1003.4
20260505032115 22 152 3.2 4.8 0.00 0.00 0.00 64 1003.3
20260505031612 22 91 3.2 4.8 0.00 0.00 0.00 63 1003.7
20260505031108 22 97 3.2 4.8 0.00 0.00 0.00 63 1004.2
20260505030605 22 188 1.6 1.6 0.00 0.00 0.00 63 1004.1
20260505030101 22 142 4.8 4.8 0.00 0.00 0.00 63 1004.2
20260505025557 22 159 1.6 3.2 0.00 0.00 0.00 63 1004.2
20260505025056 22 178 0.0 0.0 0.00 0.00 0.00 62 1004.1
20260505024553 22 113 3.2 4.8 0.00 0.00 0.00 62 1003.9
20260505024050 22 211 0.0 1.6 0.00 0.00 0.00 62 1004.0
20260505023547 22 168 0.0 0.0 0.00 0.00 0.00 61 1003.9
20260505023045 22 181 0.0 0.0 0.00 0.00 0.00 61 1003.8
20260505022542 23 215 0.0 1.6 0.00 0.00 0.00 61 1004.1
20260505022039 23 181 1.6 1.6 0.00 0.00 0.00 61 1003.9
20260505021536 23 221 3.2 3.2 0.00 0.00 0.00 60 1003.8
20260505021033 23 216 3.2 3.2 0.00 0.00 0.00 60 1003.6
20260505020532 23 223 3.2 4.8 0.00 0.00 0.00 59 1003.1
20260505020030 23 213 1.6 1.6 0.00 0.00 0.00 58 1003.1
20260505015527 23 210 3.2 3.2 0.00 0.00 0.00 58 1003.3
20260505015023 23 230 8.0 12.9 0.00 0.00 0.00 57 1003.0
20260505014520 23 217 3.2 3.2 0.00 0.00 0.00 56 1002.8
20260505014018 23 146 1.6 1.6 0.00 0.00 0.00 55 1002.7
20260505013515 23 180 0.0 0.0 0.00 0.00 0.00 55 1002.9
20260505013012 23 160 3.2 4.8 0.00 0.00 0.00 54 1002.4
20260505012510 23 170 0.0 1.6 0.00 0.00 0.00 54 1002.6
20260505012007 23 96 3.2 3.2 0.00 0.00 0.00 54 1002.8
20260505011502 23 138 3.2 3.2 0.00 0.00 0.00 53 1002.6
20260505010959 24 166 1.6 1.6 0.00 0.00 0.00 53 1002.5
20260505010455 24 136 1.6 1.6 0.00 0.00 0.00 53 1002.4
20260505005951 24 191 1.6 1.6 0.00 0.00 0.00 52 1002.7
20260505005448 24 150 1.6 3.2 0.00 0.00 0.00 51 1002.6
20260505004946 25 196 0.0 1.6 0.00 0.00 0.00 51 1002.5
20260505004442 25 137 0.0 0.0 0.00 0.00 0.00 50 1002.6
20260505003939 25 182 0.0 1.6 0.00 0.00 0.00 49 1002.6
20260505003436 25 226 3.2 3.2 0.00 0.00 0.00 49 1002.5
20260505002932 25 210 1.6 1.6 0.00 0.00 0.00 48 1002.7
20260505002429 25 214 3.2 3.2 0.00 0.00 0.00 47 1002.5
20260505001927 25 138 1.6 4.8 0.00 0.00 0.00 48 1003.0
20260505001425 25 201 0.0 1.6 0.00 0.00 0.00 47 1002.7
20260505000921 25 212 1.6 1.6 0.00 0.00 0.00 48 1002.9
20260505000420 25 202 3.2 4.8 0.00 0.00 0.00 47 1002.7
20260504235916 26 223 1.6 3.2 0.00 0.00 0.00 46 1002.9
20260504235413 26 223 1.6 4.8 0.00 0.00 0.00 45 1002.9
20260504234909 26 198 1.6 1.6 0.00 0.00 0.00 45 1002.8
20260504234407 26 147 1.6 3.2 0.00 0.00 0.00 44 1002.8
20260504233903 26 207 6.4 6.4 0.00 0.00 0.00 44 1002.8
20260504233359 26 74 1.6 3.2 0.00 0.00 0.00 43 1002.9
20260504232856 26 220 3.2 3.2 0.00 0.00 0.00 44 1003.0
20260504232353 26 219 9.7 14.5 0.00 0.00 0.00 43 1003.1
20260504231850 26 109 3.2 3.2 0.00 0.00 0.00 43 1003.0
20260504231346 26 168 9.7 12.9 0.00 0.00 0.00 43 1002.9
20260504230843 26 250 11.3 14.5 0.00 0.00 0.00 43 1002.9
20260504230340 27 132 3.2 3.2 0.00 0.00 0.00 43 1003.0
20260504225839 27 108 6.4 6.4 0.00 0.00 0.00 42 1003.1
20260504225335 27 234 6.4 11.3 0.00 0.00 0.00 42 1002.9
20260504224833 27 254 9.7 12.9 0.00 0.00 0.00 42 1002.8
20260504224329 27 241 8.0 12.9 0.00 0.00 0.00 42 1003.0
20260504223826 27 224 6.4 6.4 0.00 0.00 0.00 43 1002.8
20260504223321 27 204 4.8 9.7 0.00 0.00 0.00 42 1002.8
20260504222818 27 227 6.4 11.3 0.00 0.00 0.00 40 1002.9
20260504222315 27 195 9.7 11.3 0.00 0.00 0.00 41 1003.0
20260504221814 27 202 11.3 14.5 0.00 0.00 0.00 41 1003.0
20260504221310 27 173 6.4 6.4 0.00 0.00 0.00 40 1003.0
20260504220807 27 216 6.4 12.9 0.00 0.00 0.00 39 1003.1
20260504220304 27 214 6.4 9.7 0.00 0.00 0.00 39 1003.1
20260504215801 27 237 17.7 20.9 0.00 0.00 0.00 38 1003.2
20260504215257 28 229 11.3 14.5 0.00 0.00 0.00 39 1003.0
20260504214753 28 223 9.7 14.5 0.00 0.00 0.00 38 1003.0
20260504214250 28 222 14.5 16.1 0.00 0.00 0.00 37 1002.9
20260504213747 29 210 9.7 12.9 0.00 0.00 0.00 39 1003.1
20260504213243 30 230 8.0 11.3 0.00 0.00 0.00 38 1003.1
20260504212740 29 111 1.6 3.2 0.00 0.00 0.00 35 1003.0
20260504212236 28 160 3.2 4.8 0.00 0.00 0.00 36 1002.9
20260504211734 28 184 4.8 6.4 0.00 0.00 0.00 40 1003.1
20260504211230 28 73 6.4 9.7 0.00 0.00 0.00 38 1003.2
20260504210728 28 218 4.8 6.4 0.00 0.00 0.00 37 1003.3
20260504210225 29 174 8.0 11.3 0.00 0.00 0.00 39 1003.3
20260504205722 30 177 8.0 11.3 0.00 0.00 0.00 37 1003.1
20260504205219 29 237 14.5 16.1 0.00 0.00 0.00 37 1003.3
20260504204717 29 99 6.4 12.9 0.00 0.00 0.00 35 1003.3
20260504204216 29 235 11.3 14.5 0.00 0.00 0.00 37 1003.3
20260504203715 30 225 9.7 12.9 0.00 0.00 0.00 35 1003.6
20260504203212 30 228 6.4 9.7 0.00 0.00 0.00 38 1003.6
20260504202711 30 191 6.4 11.3 0.00 0.00 0.00 37 1003.7
20260504202209 30 220 6.4 9.7 0.00 0.00 0.00 36 1003.7
20260504201706 30 215 8.0 12.9 0.00 0.00 0.00 36 1003.9
20260504201203 30 217 4.8 9.7 0.00 0.00 0.00 36 1003.9
20260504200701 30 285 17.7 20.9 0.00 0.00 0.00 36 1004.0
20260504200157 30 133 3.2 6.4 0.00 0.00 0.00 37 1004.0
20260504195653 30 220 6.4 6.4 0.00 0.00 0.00 39 1004.1
20260504195149 29 227 3.2 3.2 0.00 0.00 0.00 37 1004.1
20260504194646 28 230 9.7 14.5 0.00 0.00 0.00 37 1004.3
20260504194142 28 152 6.4 9.7 0.00 0.00 0.00 40 1004.2
20260504193639 29 195 8.0 12.9 0.00 0.00 0.00 36 1004.6
20260504193137 29 100 1.6 3.2 0.00 0.00 0.00 37 1004.6
20260504192634 29 219 6.4 6.4 0.00 0.00 0.00 38 1004.5
20260504192132 30 271 9.7 14.5 0.00 0.00 0.00 36 1004.7
20260504191631 29 211 6.4 9.7 0.00 0.00 0.00 36 1004.5
20260504191127 28 212 3.2 4.8 0.00 0.00 0.00 38 1004.6
20260504190623 29 239 8.0 11.3 0.00 0.00 0.00 39 1004.8
20260504190120 29 229 9.7 14.5 0.00 0.00 0.00 38 1004.8
20260504185616 30 226 4.8 6.4 0.00 0.00 0.00 38 1004.8
20260504185113 28 253 8.0 9.7 0.00 0.00 0.00 39 1004.7
20260504184608 28 220 4.8 6.4 0.00 0.00 0.00 38 1004.9
20260504184103 29 230 8.0 11.3 0.00 0.00 0.00 36 1004.9
20260504183601 28 218 4.8 4.8 0.00 0.00 0.00 39 1005.0
20260504183059 28 219 4.8 4.8 0.00 0.00 0.00 38 1004.7
20260504182556 28 219 11.3 17.7 0.00 0.00 0.00 36 1005.3
20260504182053 28 222 12.9 14.5 0.00 0.00 0.00 34 1005.0
20260504181550 27 233 1.6 1.6 0.00 0.00 0.00 37 1005.2
20260504181048 27 105 1.6 1.6 0.00 0.00 0.00 37 1005.4
20260504180547 27 211 8.0 9.7 0.00 0.00 0.00 41 1005.2
20260504180046 28 213 1.6 3.2 0.00 0.00 0.00 37 1005.4
20260504175542 27 175 6.4 11.3 0.00 0.00 0.00 43 1005.3
20260504175039 27 250 4.8 6.4 0.00 0.00 0.00 42 1005.3
20260504174537 27 210 8.0 12.9 0.00 0.00 0.00 37 1005.2
20260504174033 26 223 14.5 16.1 0.00 0.00 0.00 40 1005.5
20260504173530 26 221 8.0 11.3 0.00 0.00 0.00 39 1005.8
20260504173028 26 227 9.7 14.5 0.00 0.00 0.00 40 1005.7
20260504172524 26 224 9.7 11.3 0.00 0.00 0.00 43 1005.6
20260504172021 26 194 8.0 9.7 0.00 0.00 0.00 39 1005.6
20260504171517 26 180 3.2 3.2 0.00 0.00 0.00 45 1005.6
20260504171014 26 212 0.0 1.6 0.00 0.00 0.00 43 1005.6
20260504170510 25 223 6.4 11.3 0.00 0.00 0.00 43 1005.8
20260504160431 22 237 8.0 12.9 0.00 0.00 0.00 47 1005.4
20260504150854 21 265 9.7 17.7 0.00 0.00 0.00 49 1005.8
20260504150351 21 236 9.7 11.3 0.00 0.00 0.00 48 1005.9
20260504141321 19 229 6.4 9.7 0.00 0.00 0.00 53 1006.1
20260504140817 19 223 6.4 11.3 0.00 0.00 0.00 53 1006.2
20260504140313 19 209 6.4 9.7 0.00 0.00 0.00 53 1006.2
20260504130742 17 223 9.7 14.5 0.00 0.00 0.00 56 1006.2
20260504130238 17 233 11.3 14.5 0.00 0.00 0.00 55 1006.0
20260504120202 16 232 8.0 12.9 0.00 0.00 0.00 55 1006.1
20260504110629 17 224 8.0 11.3 0.00 0.00 0.00 52 1006.4
20260504110125 17 226 9.7 16.1 0.00 0.00 0.00 51 1006.4
20260504100551 18 218 11.3 14.5 0.00 0.00 0.00 48 1006.9
20260504081944 19 236 19.3 24.1 0.00 0.00 0.00 43 1007.4
20260504081441 19 228 17.7 25.7 0.00 0.00 0.00 43 1007.4
20260504080937 19 219 6.4 12.9 0.00 0.00 0.00 43 1007.5
20260504080434 19 201 11.3 17.7 0.00 0.00 0.00 43 1007.6